Date String (YYYY-MM-DD hh:mm:ss) UTC,Instrument flags,Ambient pressure (hPa),Sample flow (lpm),Bypass flow (lpm),Sample temperature (°C),Ambient temperature (°C),ASC tube jacket temperature (°C),LED temperature (°C),Box temperature (°C),Sample RH (%),Span deviation,Mass concentration (μg/m³),Mass concentration (μg/m³),Mass concentration (μg/m³)
DateTimeUTC,F1_M11,P_M11,Q1_M11,Q2_M11,T1_M11,T2_M11,T3_M11,T4_M11,T5_M11,U1_M11,ZSPAN_M11,X0_M11,X2_M11,X1_M11
2022-03-27 05:00:00,,0823.3,5.02,0.00,29.7,28.6,00.0,38.7,31.5,12.1,0000.0,0017.70,0005.73,0003.60
2022-03-27 05:01:00,,0823.3,4.99,0.00,29.7,28.7,00.0,38.7,31.5,12.1,0000.0,0019.59,0005.82,0003.66
2022-03-27 05:02:00,,0823.3,4.99,0.00,29.7,28.7,00.0,38.7,31.5,12.0,0000.0,0020.17,0005.90,0003.72
2022-03-27 05:03:00,,0823.3,4.99,0.00,29.7,28.7,00.0,38.7,31.5,11.9,0000.0,0019.75,0006.00,0003.77
2022-03-27 05:04:00,,0823.3,5.01,0.00,29.7,28.7,00.0,38.7,31.5,11.8,0000.0,0020.18,0006.07,0003.79
2022-03-27 05:05:00,,0823.3,5.00,0.00,29.7,28.7,00.0,38.7,31.5,11.8,0000.0,0021.70,0006.13,0003.80
2022-03-27 05:06:00,,0823.3,5.00,0.00,29.7,28.7,00.0,38.7,31.5,11.9,0000.0,0022.02,0006.18,0003.81
2022-03-27 05:07:00,,0823.4,5.00,0.00,29.8,28.7,00.0,38.7,31.5,12.0,0000.0,0021.69,0006.21,0003.82
2022-03-27 05:08:00,,0823.3,5.00,0.00,29.8,28.7,00.0,38.7,31.5,12.0,0000.0,0021.06,0006.22,0003.84
2022-03-27 05:09:00,,0823.3,5.02,0.00,29.7,28.7,00.0,38.7,31.5,12.0,0000.0,0020.70,0006.22,0003.85
2022-03-27 05:10:00,,0823.3,4.99,0.00,29.7,28.7,00.0,38.7,31.5,12.0,-000.0,0021.15,0006.30,0003.82
2022-03-27 05:11:00,,0823.3,4.99,0.00,29.7,28.7,00.0,38.7,31.5,12.1,-000.0,0022.12,0006.36,0003.79
2022-03-27 05:12:00,,0823.3,5.01,0.00,29.7,28.7,00.0,38.7,31.5,12.1,-000.1,0021.08,0006.41,0003.78
2022-03-27 05:13:00,,0823.4,4.99,0.00,29.7,28.7,00.0,38.7,31.5,12.2,-000.7,0021.58,0006.42,0003.81
2022-03-27 05:14:00,,0823.3,5.02,0.00,29.7,28.7,00.0,38.7,31.5,12.2,0000.2,0022.17,0006.43,0003.86
2022-03-27 05:15:00,,0823.3,4.98,0.00,29.7,28.7,00.0,38.7,31.5,12.3,0000.0,0021.74,0006.51,0003.97
2022-03-27 05:16:00,,0823.3,4.99,0.00,29.7,28.8,00.0,38.7,31.5,12.3,0001.6,0020.81,0006.58,0004.08
2022-03-27 05:17:00,,0823.3,4.99,0.00,29.8,28.7,00.0,38.7,31.5,12.3,0002.2,0020.59,0006.70,0004.18
2022-03-27 05:18:00,,0823.3,5.02,0.00,29.7,28.7,00.0,38.7,31.5,12.3,0001.7,0020.75,0006.77,0004.27
2022-03-27 05:19:00,,0823.4,4.99,0.00,29.8,28.8,00.0,38.7,31.5,12.3,0001.3,0021.69,0006.82,0004.35
2022-03-27 05:20:00,,0823.4,4.99,0.00,29.8,28.8,00.0,38.7,31.5,12.3,0000.6,0021.83,0006.88,0004.42
2022-03-27 05:21:00,,0823.4,5.01,0.00,29.8,28.8,00.0,38.7,31.5,12.3,0000.6,0021.96,0006.92,0004.52
2022-03-27 05:22:00,,0823.5,4.99,0.00,29.8,28.8,00.0,38.7,31.5,12.3,0001.0,0021.64,0006.94,0004.59
2022-03-27 05:23:00,,0823.4,5.00,0.00,29.8,28.8,00.0,38.7,31.5,12.4,0001.1,0022.35,0006.93,0004.65
2022-03-27 05:24:00,,0823.5,5.00,0.00,29.8,28.8,00.0,38.7,31.5,12.4,0000.8,0021.82,0006.92,0004.67
2022-03-27 05:25:00,,0823.5,4.99,0.00,29.8,28.8,00.0,38.7,31.5,12.5,0001.6,0022.24,0006.94,0004.69
2022-03-27 05:26:00,,0823.4,5.01,0.00,29.8,28.8,00.0,38.8,31.5,12.5,0003.7,0022.20,0006.99,0004.70
2022-03-27 05:27:00,,0823.5,5.00,0.00,29.8,28.8,00.0,38.8,31.5,12.5,0004.7,0021.74,0007.01,0004.69
2022-03-27 05:28:00,,0823.4,5.00,0.00,29.8,28.8,00.0,38.7,31.5,12.5,0004.1,0022.01,0006.98,0004.69
2022-03-27 05:29:00,,0823.4,4.99,0.00,29.8,28.8,00.0,38.8,31.5,12.5,0005.7,0022.19,0006.96,0004.68
2022-03-27 05:30:00,,0823.4,5.02,0.00,29.8,28.8,00.0,38.8,31.5,12.5,0007.2,0022.18,0007.05,0004.68
2022-03-27 05:31:00,,0823.4,4.99,0.00,29.8,28.8,00.0,38.8,31.5,12.5,0007.5,0022.16,0007.05,0004.68
2022-03-27 05:32:00,,0823.4,5.00,0.00,29.8,28.8,00.0,38.8,31.5,12.5,0006.2,0021.97,0007.03,0004.67
2022-03-27 05:33:00,,0823.5,5.02,0.00,29.8,28.8,00.0,38.8,31.5,12.5,0005.9,0021.38,0007.04,0004.65
2022-03-27 05:34:00,,0823.4,5.00,0.00,29.8,28.8,00.0,38.8,31.5,12.6,0005.7,0020.78,0007.08,0004.66
2022-03-27 05:35:00,,0823.5,5.00,0.00,29.8,28.8,00.0,38.8,31.5,12.6,0004.9,0020.52,0007.11,0004.65
2022-03-27 05:36:00,,0823.5,5.01,0.00,29.8,28.8,00.0,38.8,31.5,12.7,0000.0,0019.95,0007.12,0004.65
2022-03-27 05:37:00,,0823.4,4.99,0.00,29.8,28.8,00.0,38.8,31.5,12.7,0000.0,0020.05,0007.04,0004.64
2022-03-27 05:38:00,,0823.5,5.00,0.00,29.8,28.8,00.0,38.8,31.5,12.7,0000.0,0021.60,0007.01,0004.65
2022-03-27 05:39:00,,0823.5,5.02,0.00,29.8,28.8,00.0,38.8,31.5,12.7,0000.0,0021.44,0007.00,0004.65
2022-03-27 05:40:00,,0823.6,4.99,0.00,29.8,28.8,00.0,38.8,31.5,12.8,0000.0,0021.26,0006.95,0004.64
2022-03-27 05:41:00,,0823.5,5.00,0.00,29.8,28.8,00.0,38.8,31.5,12.8,0000.0,0021.54,0006.93,0004.65
2022-03-27 05:42:00,,0823.5,5.01,0.00,29.8,28.8,00.0,38.8,31.5,12.7,0000.0,0021.86,0006.95,0004.63
2022-03-27 05:43:00,,0823.6,4.99,0.00,29.8,28.8,00.0,38.8,31.5,12.8,0000.0,0022.49,0006.97,0004.63
2022-03-27 05:44:00,,0823.7,4.99,0.00,29.8,28.7,00.0,38.8,31.5,12.9,0000.0,0022.40,0006.98,0004.67
2022-03-27 05:45:00,,0823.6,5.02,0.00,29.8,28.7,00.0,38.8,31.5,13.0,0000.0,0023.18,0006.96,0004.69
2022-03-27 05:46:00,,0823.6,4.99,0.00,29.8,28.7,00.0,38.8,31.5,13.0,0000.0,0023.34,0006.94,0004.71
2022-03-27 05:47:00,,0823.6,5.00,0.00,29.7,28.7,00.0,38.8,31.5,13.1,0000.0,0023.18,0006.95,0004.73
2022-03-27 05:48:00,,0823.6,5.01,0.00,29.7,28.7,00.0,38.8,31.4,13.2,0000.0,0022.55,0007.00,0004.75
2022-03-27 05:49:00,,0823.7,4.99,0.00,29.7,28.7,00.0,38.8,31.4,13.2,0000.0,0021.48,0007.02,0004.76
2022-03-27 05:50:00,,0823.7,4.99,0.00,29.7,28.7,00.0,38.8,31.4,13.2,0000.0,0021.90,0007.05,0004.78
2022-03-27 05:51:00,,0823.7,5.01,0.00,29.7,28.7,00.0,38.7,31.4,13.3,0000.0,0023.80,0007.19,0004.81
2022-03-27 05:52:00,,0823.7,5.00,0.00,29.7,28.6,00.0,38.7,31.4,13.5,0000.0,0022.97,0007.17,0004.83
2022-03-27 05:53:00,,0823.7,4.98,0.00,29.7,28.6,00.0,38.7,31.4,13.6,0000.2,0022.37,0007.14,0004.88
2022-03-27 05:54:00,,0823.7,5.02,0.00,29.6,28.6,00.0,38.7,31.4,13.7,0000.2,0020.91,0007.15,0004.91
2022-03-27 05:55:00,,0823.7,4.99,0.00,29.6,28.6,00.0,38.7,31.4,13.7,0000.0,0021.01,0007.20,0004.95
2022-03-27 05:56:00,,0823.7,5.00,0.00,29.6,28.6,00.0,38.7,31.4,13.7,0000.0,0020.21,0007.30,0004.99
2022-03-27 05:57:00,,0823.7,5.01,0.00,29.6,28.6,00.0,38.7,31.4,13.7,0000.1,0021.23,0007.35,0005.02
2022-03-27 05:58:00,,0823.7,4.99,0.00,29.6,28.6,00.0,38.7,31.4,13.7,0001.6,0021.68,0007.47,0005.06
2022-03-27 05:59:00,,0823.7,5.00,0.00,29.6,28.6,00.0,38.7,31.4,13.8,0001.5,0022.37,0007.50,0005.09
